Overview Statistics Trail Chart Weather Telemetry Raw packets
 

This is the latest recevied weather packets stored in our database for station/object EFIV. If no packets are shown the sender has not sent any weather packets the latest 10 day(s).

<< 8 9 10 11 12 13 >>
Time Temp. Humidity Pressure Rain* Wind** Luminosity Snow
1787540632 10° C 93% 1015.2 hPa - - - -
1787539432 10° C 96% 1015.3 hPa - - - -
1787538022 10° C 96% 1014.8 hPa - - - -
1787537033 10° C 96% 1015.1 hPa - - - -
1787535833 10° C 95% 1015.2 hPa - - - -
1787534630 10° C 93% 1015.1 hPa - - - -
1787532232 10.56° C 90% 1014.8 hPa - - - -
1787531031 10.56° C 90% 1014.8 hPa - - - -
1787528631 10° C 91% 1014.6 hPa - - - -
1787527431 10.56° C 90% 1014.6 hPa - - - -
1787526231 10.56° C 92% 1014.7 hPa - - - -
1787525030 10.56° C 91% 1014.6 hPa - - - -
1787523832 10.56° C 90% 1014.6 hPa - - - -
1787522630 10.56° C 90% 1014.5 hPa - - - -
1787521428 10.56° C 90% 1014.6 hPa - - - -
1787520230 10.56° C 90% 1014.6 hPa - - - -
1787519033 10.56° C 89% 1014.6 hPa - - - -
1787517830 10.56° C 89% 1014.6 hPa - - - -
1787516630 10.56° C 89% 1014.5 hPa - - - -
1787515429 10.56° C 90% 1014.6 hPa - - - -
1787514232 10.56° C 90% 1014.6 hPa - - - -
1787512821 10.56° C 91% 1014.6 hPa - - - -
1787511829 10.56° C 92% 1014.7 hPa - - - -
1787510632 10.56° C 90% 1014.6 hPa - - - -
1787509432 10.56° C 90% 1014.6 hPa - - - -

* Rain since midnight (hover to see other rain measurements)
** Current wind speed in m/s (hover to see current wind gust speed)